EW0797 Weather Reports


time (UTC)temp
F
wind
direction
speed
knots
gust
knots
rain 1hr
in
rain 24hr
in
rain mn
in
humidity
%
barometer
mb
20260504003005 62 199 1.7 6.1 0.00 0.00 0.00 43 1013.4
20260504002005 62 192 3.5 10.4 0.00 0.00 0.00 42 1013.4
20260504001504 62 197 3.5 10.4 0.00 0.00 0.00 42 1013.3
20260504001005 63 200 3.5 8.7 0.00 0.00 0.00 42 1013.4
20260504000505 63 197 3.5 8.7 0.00 0.00 0.00 41 1013.3
20260504000005 63 201 2.6 7.8 0.00 0.00 0.00 41 1013.3
20260503235505 63 198 3.5 7.8 0.00 0.00 0.00 41 1013.3
20260503235005 63 203 4.3 7.8 0.00 0.00 0.00 41 1013.5
20260503234505 64 213 3.5 7.8 0.00 0.00 0.00 41 1013.4
20260503234004 64 220 3.5 7.8 0.00 0.00 0.00 40 1013.3
20260503233504 64 221 4.3 10.4 0.00 0.00 0.00 40 1013.3
20260503233005 64 214 3.5 10.4 0.00 0.00 0.00 40 1013.3
20260503232504 64 221 4.3 11.3 0.00 0.00 0.00 39 1013.4
20260503232005 64 218 6.1 13.9 0.00 0.00 0.00 40 1013.3
20260503230504 65 208 4.3 8.7 0.00 0.00 0.00 39 1013.6
20260503230006 65 201 3.5 8.7 0.00 0.00 0.00 39 1013.7
20260503225505 65 197 3.5 11.3 0.00 0.00 0.00 39 1013.8
20260503225004 65 195 3.5 11.3 0.00 0.00 0.00 38 1013.9
20260503224005 65 201 4.3 10.4 0.00 0.00 0.00 37 1014.2
20260503223505 65 196 4.3 10.4 0.00 0.00 0.00 35 1014.2
20260503223004 66 220 4.3 10.4 0.00 0.00 0.00 35 1014.3
20260503222505 66 246 5.2 10.4 0.00 0.00 0.00 34 1014.4
20260503222005 67 234 6.1 10.4 0.00 0.00 0.00 34 1014.4
20260503221005 67 225 4.3 12.2 0.00 0.00 0.00 35 1014.5
20260503220504 66 212 5.2 12.2 0.00 0.00 0.00 36 1014.3
20260503220004 66 215 5.2 8.7 0.00 0.00 0.00 35 1014.4
20260503215504 67 212 5.2 11.3 0.00 0.00 0.00 33 1014.7
20260503215004 67 218 6.1 12.2 0.00 0.00 0.00 33 1015.0
20260503214505 67 208 6.1 13.9 0.00 0.00 0.00 33 1015.0
20260503213505 67 217 6.1 13.0 0.00 0.00 0.00 34 1015.2
20260503213005 67 229 5.2 12.2 0.00 0.00 0.00 32 1015.3
20260503212504 67 240 6.1 14.8 0.00 0.00 0.00 34 1015.3
20260503212004 67 219 7.8 14.8 0.00 0.00 0.00 31 1015.5
20260503211504 67 207 6.1 14.8 0.00 0.00 0.00 33 1015.4
20260503211004 67 210 5.2 12.2 0.00 0.00 0.00 31 1015.1
20260503210505 67 198 5.2 12.2 0.00 0.00 0.00 31 1015.0
20260503210005 68 198 5.2 12.2 0.00 0.00 0.00 33 1015.1
20260503205505 68 221 5.2 11.3 0.00 0.00 0.00 33 1015.2
20260503205005 68 238 6.1 14.8 0.00 0.00 0.00 32 1015.4
20260503204004 67 220 4.3 9.6 0.00 0.00 0.00 34 1015.6
20260503203005 66 225 7.0 15.6 0.00 0.00 0.00 33 1015.7
20260503202505 66 226 7.0 15.6 0.00 0.00 0.00 31 1015.8
20260503202005 67 210 5.2 13.0 0.00 0.00 0.00 31 1016.0
20260503201005 66 170 4.3 7.0 0.00 0.00 0.00 33 1016.1
20260503200504 67 197 4.3 12.2 0.00 0.00 0.00 34 1016.2
20260503200005 67 224 5.2 12.2 0.00 0.00 0.00 31 1016.3
20260503195005 67 221 4.3 12.2 0.00 0.00 0.00 33 1016.5
20260503194504 67 224 5.2 12.2 0.00 0.00 0.00 32 1016.7
20260503194005 66 227 5.2 11.3 0.00 0.00 0.00 35 1016.9
20260503193504 66 216 5.2 11.3 0.00 0.00 0.00 33 1017.1
20260503193005 66 210 4.3 11.3 0.00 0.00 0.00 33 1017.2
20260503192504 66 210 4.3 9.6 0.00 0.00 0.00 32 1017.3
20260503192004 66 207 4.3 10.4 0.00 0.00 0.00 32 1017.4
20260503191504 66 213 5.2 10.4 0.00 0.00 0.00 35 1017.4
20260503191004 66 227 4.3 10.4 0.00 0.00 0.00 34 1017.5
20260503190504 66 239 5.2 15.6 0.00 0.00 0.00 33 1017.5
20260503184505 65 217 5.2 11.3 0.00 0.00 0.00 34 1017.9
20260503184005 65 227 6.1 11.3 0.00 0.00 0.00 35 1017.9
20260503183505 65 226 5.2 9.6 0.00 0.00 0.00 34 1018.1
20260503183005 65 198 4.3 11.3 0.00 0.00 0.00 36 1018.2
20260503182505 64 193 5.2 11.3 0.00 0.00 0.00 35 1018.2
20260503182006 64 196 4.3 11.3 0.00 0.00 0.00 35 1018.2
20260503181505 64 211 4.3 15.6 0.00 0.00 0.00 36 1018.2
20260503181005 64 217 6.1 15.6 0.00 0.00 0.00 34 1018.4
20260503180504 64 194 6.1 12.2 0.00 0.00 0.00 37 1018.4
20260503180005 63 153 5.2 11.3 0.00 0.00 0.00 39 1018.5
20260503174504 63 178 4.3 11.3 0.00 0.00 0.00 35 1018.7
20260503174005 63 177 4.3 11.3 0.00 0.00 0.00 37 1018.7
20260503173505 63 164 4.3 9.6 0.00 0.00 0.00 39 1018.8
20260503173005 63 179 4.3 9.6 0.00 0.00 0.00 36 1018.9
20260503172505 63 205 5.2 11.3 0.00 0.00 0.00 37 1019.0
20260503171505 63 183 3.5 8.7 0.00 0.00 0.00 40 1019.2
20260503171004 63 184 3.5 8.7 0.00 0.00 0.00 38 1019.4
20260503170505 63 187 3.5 7.8 0.00 0.00 0.00 36 1019.4
20260503151005 58 223 4.3 7.0 0.00 0.00 0.00 45 1020.6
20260503150504 58 232 4.3 7.0 0.00 0.00 0.00 44 1020.7
20260503131005 48 205 4.3 8.7 0.00 0.00 0.00 64 1020.7
20260503130504 47 215 3.5 8.7 0.00 0.00 0.00 67 1020.7
20260503110504 34 0 0.0 0.0 0.00 0.00 0.00 82 1020.1
20260503090504 35 0 0.0 0.0 0.00 0.00 0.00 78 1019.7
20260503081504 35 0 0.0 0.0 0.00 0.00 0.00 76 1019.5
20260503081005 36 0 0.0 0.0 0.00 0.00 0.00 76 1019.5
20260503080504 36 0 0.0 0.0 0.00 0.00 0.00 76 1019.5
20260503072504 36 0 0.0 0.0 0.00 0.00 0.00 74 1019.3
20260503072004 37 0 0.0 0.0 0.00 0.00 0.00 74 1019.2
20260503071504 37 0 0.0 0.0 0.00 0.00 0.00 74 1019.2
20260503071004 37 0 0.0 0.0 0.00 0.00 0.00 74 1019.3
20260503070504 37 0 0.0 0.0 0.00 0.00 0.00 73 1019.3
20260503055005 39 0 0.0 0.0 0.00 0.00 0.00 69 1019.5
20260503054504 40 0 0.0 0.0 0.00 0.00 0.00 69 1019.5
20260503054004 40 0 0.0 0.0 0.00 0.00 0.00 69 1019.5
20260503053504 40 0 0.0 0.0 0.00 0.00 0.00 68 1019.5
20260503053004 40 0 0.0 0.0 0.00 0.00 0.00 68 1019.5
20260503052504 40 0 0.0 0.0 0.00 0.00 0.00 68 1019.5
20260503052004 41 0 0.0 0.0 0.00 0.00 0.00 68 1019.4
20260503051504 41 0 0.0 0.0 0.00 0.00 0.00 68 1019.4
20260503051004 41 0 0.0 0.0 0.00 0.00 0.00 67 1019.4
20260503050005 42 0 0.0 0.0 0.00 0.00 0.00 67 1019.4
20260503045504 42 0 0.0 0.0 0.00 0.00 0.00 65 1019.4
20260503045005 42 0 0.0 0.0 0.00 0.00 0.00 64 1019.5
20260503044504 42 0 0.0 0.0 0.00 0.00 0.00 64 1019.4
20260503043505 43 0 0.0 0.0 0.00 0.00 0.00 63 1019.4
20260503042504 44 0 0.0 0.0 0.00 0.00 0.00 62 1019.3
20260503041004 44 0 0.0 0.0 0.00 0.00 0.00 61 1019.3
20260503040009 45 0 0.0 0.0 0.00 0.00 0.00 61 1019.3
20260503035005 46 0 0.0 0.0 0.00 0.00 0.00 61 1019.3
20260503034004 46 0 0.0 0.0 0.00 0.00 0.00 58 1019.3
20260503033004 47 0 0.0 0.0 0.00 0.00 0.00 58 1019.2
20260503032504 47 0 0.0 0.0 0.00 0.00 0.00 58 1019.2
20260503032004 48 0 0.0 0.0 0.00 0.00 0.00 58 1019.2
20260503031504 48 0 0.0 1.7 0.00 0.00 0.00 57 1019.1
20260503031004 48 0 0.0 1.7 0.00 0.00 0.00 56 1019.1
20260503030504 49 9 0.9 2.6 0.00 0.00 0.00 55 1019.1
20260503030005 49 9 0.9 2.6 0.00 0.00 0.00 55 1019.1
20260503025004 50 0 0.0 1.7 0.00 0.00 0.00 55 1019.1
20260503024004 50 0 0.0 1.7 0.00 0.00 0.00 54 1019.0
20260503023504 50 0 0.0 1.7 0.00 0.00 0.00 54 1018.9
20260503023004 50 0 0.0 1.7 0.00 0.00 0.00 54 1018.9
20260503022504 50 0 0.0 0.0 0.00 0.00 0.00 53 1018.8
20260503022005 51 7 0.9 2.6 0.00 0.00 0.00 53 1018.8
20260503021004 51 6 1.7 3.5 0.00 0.00 0.00 53 1018.6
20260503020504 51 13 0.9 3.5 0.00 0.00 0.00 53 1018.6
20260503020007 51 14 1.7 4.3 0.00 0.00 0.00 53 1018.5
20260503015504 51 14 2.6 4.3 0.00 0.00 0.00 52 1018.4
20260503015004 51 8 1.7 5.2 0.00 0.00 0.00 52 1018.3
20260503014504 51 5 1.7 5.2 0.00 0.00 0.00 53 1018.3
20260503014004 51 10 1.7 5.2 0.00 0.00 0.00 53 1018.2
20260503013504 51 10 1.7 5.2 0.00 0.00 0.00 54 1018.2
20260503013004 52 11 1.7 4.3 0.00 0.00 0.00 54 1018.1
20260503012504 52 8 1.7 4.3 0.00 0.00 0.00 55 1018.0
20260503012004 52 8 1.7 5.2 0.00 0.00 0.00 55 1017.9
20260503011004 52 0 0.0 2.6 0.00 0.00 0.00 55 1017.7
20260503010504 53 0 0.0 3.5 0.00 0.00 0.00 54 1017.7
20260503010004 53 0 0.0 3.5 0.00 0.00 0.00 54 1017.6
20260503005506 53 0 0.0 1.7 0.00 0.00 0.00 53 1017.6
20260503004505 54 0 0.0 0.9 0.00 0.00 0.00 53 1017.4